Date String (YYYY-MM-DD hh:mm:ss) UTC,Instrument flags,absolute air pressure of the measurement (hPa),sample flow rate (lpm),inlet stack bypass flow (lpm),air temperature of the measurement (°C),ambient temperature measured by the external sensor (°C),aerosol sample conditioner tube jacket temperature (°C),OPC LED temperature (°C),internal box temperature (°C),relative humidity of the measurement (%),span deviation,mass concentration of particles derived from Lorenz-Mie calculation of OPC scattering (μg/m³),mass concentration of particles derived from Lorenz-Mie calculation of OPC scattering (μg/m³),mass concentration of particles derived from Lorenz-Mie calculation of OPC scattering (μg/m³)
DateTimeUTC,F1_M11,P_M11,Q1_M11,Q2_M11,T1_M11,T2_M11,T3_M11,T4_M11,T5_M11,U1_M11,ZSPAN_M11,X0_M11,X2_M11,X1_M11
2023-08-14 06:00:00,SystemResetWarning,0840.7,4.99,000.00,029.6,028.4,000.0,038.1,031.3,19.6,0002.6,0010.17,0004.03,0003.52
2023-08-14 06:01:00,SystemResetWarning,0840.7,4.99,000.00,029.7,028.5,000.0,038.2,031.3,19.6,0002.6,0009.88,0004.04,0003.51
2023-08-14 06:02:00,SystemResetWarning,0840.7,5.01,000.00,029.7,028.5,000.0,038.2,031.3,19.8,0003.1,0008.53,0004.06,0003.51
2023-08-14 06:03:00,SystemResetWarning,0840.7,5.01,000.00,029.7,028.5,000.0,038.2,031.3,20.1,0003.2,0008.25,0004.06,0003.50
2023-08-14 06:04:00,SystemResetWarning,0840.7,5.00,000.00,029.7,028.6,000.0,038.2,031.4,20.0,0003.0,0008.17,0004.05,0003.50
2023-08-14 06:05:00,SystemResetWarning,0840.7,5.00,000.00,029.7,028.6,000.0,038.3,031.4,19.6,0002.5,0008.44,0004.06,0003.49
2023-08-14 06:06:00,SystemResetWarning,0840.7,4.99,000.00,029.8,028.6,000.0,038.3,031.4,19.4,0001.9,0009.08,0004.08,0003.49
2023-08-14 06:07:00,SystemResetWarning,0840.7,4.99,000.00,029.8,028.6,000.0,038.3,031.4,19.4,0001.7,0009.30,0004.10,0003.50
2023-08-14 06:08:00,SystemResetWarning,0840.7,5.00,000.00,029.8,027.6,000.0,038.2,031.3,19.2,0001.6,0010.00,0004.15,0003.51
2023-08-14 06:09:00,SystemResetWarning,0840.6,5.00,000.00,029.7,025.7,000.0,038.1,031.0,19.4,0001.8,0010.21,0004.16,0003.52
2023-08-14 06:10:00,SystemResetWarning,0840.6,5.00,000.00,029.6,025.2,000.0,038.0,030.8,19.6,0002.2,0010.93,0004.15,0003.52
2023-08-14 06:11:00,SystemResetWarning,0840.6,5.01,000.00,029.5,025.5,000.0,038.0,030.6,19.8,0002.1,0010.99,0004.16,0003.50
2023-08-14 06:12:00,SystemResetWarning,0840.6,5.00,000.00,029.4,025.8,000.0,038.0,030.6,19.8,0001.9,0010.89,0004.13,0003.49
2023-08-14 06:13:00,SystemResetWarning,0840.6,5.00,000.00,029.4,026.2,000.0,038.0,030.7,19.9,0001.4,0011.11,0004.10,0003.49
2023-08-14 06:14:00,SystemResetWarning,0840.6,5.00,000.00,029.4,026.6,000.0,038.0,030.8,19.9,0000.0,0011.36,0004.12,0003.50
2023-08-14 06:15:00,SystemResetWarning,0840.6,5.00,000.00,029.4,026.9,000.0,038.0,030.9,19.8,0000.0,0011.45,0004.13,0003.50
2023-08-14 06:16:00,SystemResetWarning,0840.6,5.00,000.00,029.4,027.2,000.0,038.0,030.9,19.7,0000.3,0011.75,0004.11,0003.51
2023-08-14 06:17:00,SystemResetWarning,0840.6,5.00,000.00,029.4,027.4,000.0,038.0,031.0,19.7,0002.1,0011.44,0004.09,0003.50
2023-08-14 06:18:00,SystemResetWarning,0840.6,5.00,000.00,029.4,027.6,000.0,038.0,031.0,19.7,0002.4,0011.79,0004.09,0003.49
2023-08-14 06:19:00,SystemResetWarning,0840.6,5.00,000.00,029.4,027.7,000.0,038.0,031.0,19.6,0002.2,0011.54,0004.04,0003.48
2023-08-14 06:20:00,SystemResetWarning,0840.6,5.00,000.00,029.4,027.8,000.0,038.0,031.0,19.5,0001.8,0011.73,0004.02,0003.48
2023-08-14 06:21:00,SystemResetWarning,0840.6,5.00,000.00,029.4,027.9,000.0,038.0,031.1,19.4,0001.5,0011.98,0004.00,0003.47
2023-08-14 06:22:00,SystemResetWarning,0840.6,5.00,000.00,029.5,028.0,000.0,038.1,031.1,19.3,0001.6,0012.48,0003.97,0003.47
2023-08-14 06:23:00,SystemResetWarning,0840.6,4.99,000.00,029.5,028.1,000.0,038.1,031.1,19.2,0001.9,0012.74,0003.96,0003.49
2023-08-14 06:24:00,SystemResetWarning,0840.6,5.00,000.00,029.5,028.2,000.0,038.1,031.1,19.0,0001.6,0013.61,0003.96,0003.49
2023-08-14 06:25:00,SystemResetWarning,0840.6,5.00,000.00,029.5,028.2,000.0,038.1,031.2,19.0,0001.3,0013.28,0003.94,0003.48
2023-08-14 06:26:00,SystemResetWarning,0840.6,5.00,000.00,029.6,028.3,000.0,038.1,031.2,19.0,0000.8,0013.40,0003.93,0003.47
2023-08-14 06:27:00,SystemResetWarning,0840.6,5.01,000.00,029.6,028.3,000.0,038.1,031.2,18.9,-000.0,0012.84,0003.93,0003.47
2023-08-14 06:28:00,SystemResetWarning,0840.6,5.00,000.00,029.6,028.3,000.0,038.1,031.2,18.8,0000.2,0012.93,0003.96,0003.48
2023-08-14 06:29:00,SystemResetWarning,0840.6,4.99,000.00,029.6,028.4,000.0,038.2,031.3,18.7,0000.0,0012.39,0003.97,0003.48
2023-08-14 06:30:00,SystemResetWarning,0840.6,5.00,000.00,029.6,028.4,000.0,038.2,031.3,18.7,0000.9,0011.84,0004.00,0003.48
2023-08-14 06:31:00,SystemResetWarning,0840.6,5.00,000.00,029.7,028.4,000.0,038.2,031.3,18.7,0001.3,0011.22,0003.97,0003.47
2023-08-14 06:32:00,SystemResetWarning,0840.5,5.00,000.00,029.7,028.5,000.0,038.2,031.3,18.8,0001.6,0010.50,0003.99,0003.48
2023-08-14 06:33:00,SystemResetWarning,0840.5,5.00,000.00,029.7,028.5,000.0,038.2,031.3,18.9,0001.3,0010.09,0004.01,0003.49
2023-08-14 06:34:00,SystemResetWarning,0840.5,5.00,000.00,029.7,028.5,000.0,038.2,031.3,19.1,0000.4,0010.24,0004.03,0003.49
2023-08-14 06:35:00,SystemResetWarning,0840.5,4.99,000.00,029.7,028.5,000.0,038.3,031.3,19.5,0000.7,0009.03,0004.04,0003.50
2023-08-14 06:36:00,SystemResetWarning,0840.5,5.01,000.00,029.7,028.5,000.0,038.3,031.4,19.9,0001.1,0009.11,0004.06,0003.50
2023-08-14 06:37:00,SystemResetWarning,0840.5,5.00,000.00,029.8,028.5,000.0,038.3,031.4,19.7,0001.3,0008.99,0004.05,0003.51
2023-08-14 06:38:00,SystemResetWarning,0840.5,5.00,000.00,029.8,028.5,000.0,038.3,031.4,19.6,0001.3,0008.97,0004.05,0003.52
2023-08-14 06:39:00,SystemResetWarning,0840.5,5.00,000.00,029.8,028.5,000.0,038.3,031.4,19.6,0001.2,0008.77,0004.04,0003.52
2023-08-14 06:40:00,SystemResetWarning,0840.5,5.00,000.00,029.8,028.6,000.0,038.3,031.4,19.8,0001.3,0008.96,0004.04,0003.52
2023-08-14 06:41:00,SystemResetWarning,0840.5,5.00,000.00,029.8,028.4,000.0,038.3,031.4,20.3,0001.1,0009.70,0004.02,0003.53
2023-08-14 06:42:00,SystemResetWarning,0840.5,4.98,000.00,029.8,026.7,000.0,038.2,031.1,20.6,0001.0,0009.87,0004.05,0003.54
2023-08-14 06:43:00,SystemResetWarning,0840.5,5.01,000.00,029.7,025.3,000.0,038.1,030.9,20.9,0000.8,0009.60,0004.05,0003.55
2023-08-14 06:44:00,SystemResetWarning,0840.5,5.01,000.00,029.6,025.2,000.0,038.0,030.6,21.1,0001.0,0010.13,0004.04,0003.55
2023-08-14 06:45:00,SystemResetWarning,0840.5,5.00,000.00,029.5,025.5,000.0,038.1,030.5,21.3,0001.4,0010.74,0004.06,0003.56
2023-08-14 06:46:00,SystemResetWarning,0840.4,5.00,000.00,029.4,025.9,000.0,038.1,030.6,21.4,0001.6,0010.84,0004.08,0003.56
2023-08-14 06:47:00,SystemResetWarning,0840.4,5.00,000.00,029.4,026.3,000.0,038.1,030.7,21.4,0001.3,0010.80,0004.06,0003.56
2023-08-14 06:48:00,SystemResetWarning,0840.4,5.00,000.00,029.3,026.6,000.0,038.1,030.7,21.5,0001.4,0010.89,0004.07,0003.57
2023-08-14 06:49:00,SystemResetWarning,0840.4,5.00,000.00,029.3,026.9,000.0,038.0,030.8,21.5,0001.8,0011.07,0004.06,0003.56
2023-08-14 06:50:00,SystemResetWarning,0840.4,5.00,000.00,029.3,027.1,000.0,038.0,030.8,21.7,0002.4,0011.06,0004.07,0003.56
2023-08-14 06:51:00,SystemResetWarning,0840.4,5.00,000.00,029.3,027.3,000.0,038.0,030.9,21.7,0002.3,0011.21,0004.07,0003.56
2023-08-14 06:52:00,SystemResetWarning,0840.4,5.00,000.00,029.4,027.5,000.0,038.0,030.9,21.6,0002.3,0010.82,0004.06,0003.56
2023-08-14 06:53:00,SystemResetWarning,0840.5,5.00,000.00,029.4,027.6,000.0,038.0,030.9,21.6,0002.4,0010.48,0004.07,0003.56
2023-08-14 06:54:00,SystemResetWarning,0840.4,5.00,000.00,029.4,027.7,000.0,038.0,030.9,21.6,0002.4,0011.19,0004.04,0003.57
2023-08-14 06:55:00,SystemResetWarning,0840.5,5.00,000.00,029.4,027.8,000.0,038.0,031.0,21.6,0002.4,0011.44,0004.03,0003.55
2023-08-14 06:56:00,SystemResetWarning,0840.5,5.00,000.00,029.4,027.9,000.0,038.0,031.0,21.5,0002.2,0010.20,0003.99,0003.55
2023-08-14 06:57:00,SystemResetWarning,0840.5,5.00,000.00,029.4,027.9,000.0,038.0,031.0,21.5,0002.0,0009.74,0003.93,0003.55
2023-08-14 06:58:00,SystemResetWarning,0840.5,5.00,000.00,029.4,028.0,000.0,038.0,031.0,21.4,0002.2,0009.81,0003.92,0003.55
2023-08-14 06:59:00,SystemResetWarning,0840.5,5.00,000.00,029.5,028.0,000.0,038.0,031.0,21.4,0002.1,0009.86,0003.90,0003.55
